Satellite-Ground Cal/Val Region Overpasses Predictions

Prediction of Satellite NPP Overpassing Cal/Val Region: PacNW

Region Location: (Latitude: 10.00, Longitude: 139.50) to (Latitude: 22.70, Longitude: 165.60).

Table of predicted overpasses for the next 14.0 days since TLE Epoch: 11/8/2012
Interval Starting Time Starting Location Ending Time Ending Location
1 11/09/2012 02:08:14 ( 19.52, 165.59) 11/09/2012 02:09:08 ( 22.69, 164.81)
2 11/09/2012 03:47:02 ( 10.01, 142.45) 11/09/2012 03:50:33 ( 22.40, 139.51)
3 11/09/2012 14:37:26 ( 22.68, 165.06) 11/09/2012 14:41:01 ( 10.06, 162.05)
4 11/09/2012 16:18:56 ( 22.67, 139.68) 11/09/2012 16:19:08 ( 21.97, 139.50)
5 11/10/2012 03:28:01 ( 10.02, 147.21) 11/10/2012 03:31:37 ( 22.70, 144.19)
6 11/10/2012 15:59:54 ( 22.66, 144.43) 11/10/2012 16:03:29 ( 10.05, 141.43)
7 11/11/2012 03:08:59 ( 10.03, 151.96) 11/11/2012 03:12:34 ( 22.65, 148.96)
8 11/11/2012 15:40:53 ( 22.66, 149.19) 11/11/2012 15:44:28 ( 10.04, 146.19)
9 11/12/2012 02:49:58 ( 10.04, 156.72) 11/12/2012 02:53:33 ( 22.66, 153.71)
10 11/12/2012 15:21:51 ( 22.65, 153.94) 11/12/2012 15:25:26 ( 10.03, 150.94)
11 11/13/2012 02:30:56 ( 10.05, 161.47) 11/13/2012 02:34:31 ( 22.67, 158.47)
12 11/13/2012 15:02:49 ( 22.69, 158.71) 11/13/2012 15:06:25 ( 10.02, 155.70)
13 11/14/2012 02:12:42 ( 12.82, 165.59) 11/14/2012 02:15:30 ( 22.68, 163.22)
14 11/14/2012 03:53:24 ( 10.01, 140.86) 11/14/2012 03:55:03 ( 15.82, 139.51)
15 11/14/2012 14:43:47 ( 22.68, 163.46) 11/14/2012 14:47:23 ( 10.00, 160.45)
16 11/15/2012 03:34:22 ( 10.02, 145.61) 11/15/2012 03:37:57 ( 22.64, 142.61)
17 11/15/2012 14:27:53 ( 11.69, 165.59) 11/15/2012 14:28:21 ( 10.05, 165.22)
18 11/15/2012 16:06:16 ( 22.66, 142.84) 11/15/2012 16:09:51 ( 10.04, 139.84)
19 11/16/2012 03:15:21 ( 10.04, 150.37) 11/16/2012 03:18:56 ( 22.66, 147.37)
20 11/16/2012 15:47:15 ( 22.64, 147.59) 11/16/2012 15:50:50 ( 10.02, 144.59)
21 11/17/2012 02:56:19 ( 10.06, 155.12) 11/17/2012 02:59:54 ( 22.68, 152.12)
22 11/17/2012 15:28:12 ( 22.68, 152.36) 11/17/2012 15:31:48 ( 10.00, 149.35)
23
